Regional Weather Roundup
Issued by NWS

Home | Current Version | Previous Version | Text Only | Print | Product List | Glossary On
Versions: 1 2 3 4 5 6 7 8 9 10 11 12 13 14 15 16 17 18 19 20 21 22 23 24 25 26 27 28 29 30 31 32 33 34 35 36 37 38 39 40 41 42 43 44 45 46 47 48 49 50
000
ASUS44 KFWD 262110
RWRTX
NORTH TEXAS HOURLY WEATHER ROUNDUP
NATIONAL WEATHER SERVICE FORT WORTH TX
300 PM CST MON JAN 26 2015

NOTE: "FAIR" INDICATES FEW OR NO CLOUDS BELOW 12,000 FEET WITH NO
SIGNIFICANT WEATHER AND/OR OBSTRUCTIONS TO VISIBILITY.

TXZ118-119-262200-
DALLAS/FORT WORTH METROPLEX

CITY           SKY/WX    TMP DP  RH WIND       PRES   REMARKS
DFW AIRPORT    MOSUNNY   70  37  29 SW9       30.08F
DALLAS LOVE    MOSUNNY   70  36  28 W8        30.09F
FTW MEACHAM    SUNNY     72  39  30 SW9       30.09F
DAL-EXECUTIVE  SUNNY     72  34  24 W9        30.09F
FTW-ALLIANCE   MOSUNNY   71  37  28 W8        30.08F
FTW-SPINKS     SUNNY     73  37  27 W13       30.12F
ARLINGTON      SUNNY     72  35  25 SW9       30.09F
GRAND PRAIRIE  SUNNY     68  37  32 SW12      30.11F
ADDISON        SUNNY     70  34  26 SW7       30.10F
MESQUITE       SUNNY     68  34  28 SW7       30.09F
LANCASTER      SUNNY     69  34  27 SW7       30.11F
$$

TXZ091>094-102>105-117-120-121-131>134-262200-
NORTH CENTRAL TEXAS

CITY           SKY/WX    TMP DP  RH WIND       PRES   REMARKS
SHRMAN/DENISON SUNNY     70  42  36 SW12      30.08F
GAINESVILLE    SUNNY     74  36  25 W14       30.09S
BOWIE          SUNNY     71  37  28 W9        30.09F
BRIDGEPORT     SUNNY     73  42  32 W14G20    30.12F
DECATUR        SUNNY     71  35  27 W13       30.10S
DENTON         SUNNY     71  37  28 W12       30.08F
MCKINNEY       SUNNY     68  35  29 W12       30.08F
GREENVILLE     SUNNY     68  32  26 SW12      30.09S
ROCKWALL       SUNNY     67  36  31 W10       30.08F
TERRELL        SUNNY     68  38  33 SW10      30.10F
WAXAHACHIE     SUNNY     69  40  35 W8        30.12F
CLEBURNE       SUNNY     72  36  26 SW7       30.13F
GRANBURY       SUNNY     74  37  25 W13       30.13F
$$

TXZ083>090-098>101-113>116-127>130-139>142-154-155-262200-
WESTERN NORTH TEXAS

CITY           SKY/WX    TMP DP  RH WIND       PRES   REMARKS
WICHITA FALLS  SUNNY     72  39  30 SW12      30.08F
WF-KICKAPOO    SUNNY    N/A N/A N/A SW10G17   30.10F
VERNON         SUNNY     80  11   7 W16G23    30.09F
ABILENE        MOSUNNY   72  32  23 W13       30.17F
ABILENE-DYESS  MOSUNNY   70  36  28 W9        30.16F
BRECKENRIDGE   SUNNY     75  30  19 W17       30.13F HAZE
GRAHAM         SUNNY     74  38  26 SW12      30.11F
MINERAL WELLS  SUNNY     73  36  25 W9        30.11F
STEPHENVILLE   SUNNY     74  31  20 W12G18    30.17S
COMANCHE       SUNNY     73  34  24 W13       30.16F
BROWNWOOD      MOSUNNY   72  32  23 W12       30.17F
COLEMAN        MOSUNNY   69  42  37 W10       30.19F
BRADY          SUNNY     70  36  28 W13       30.19F
$$

TXZ143>147-156>162-174-175-262200-
CENTRAL TEXAS

CITY           SKY/WX    TMP DP  RH WIND       PRES   REMARKS
WACO           SUNNY     73  36  25 W8        30.13F
WACO-TSTC      SUNNY     73  36  25 SW7       30.14F
WACO-MCGREGOR  SUNNY     73  41  31 W9G16     30.15F
HILLSBORO      SUNNY     70  38  31 SW10      30.13F
CORSICANA      SUNNY     67  36  31 SW8       30.13F
MEXIA          SUNNY     65  38  35 SW9       30.13F
HEARNE         MOSUNNY   67  39  35 W7        30.17F
CAMERON        MOSUNNY   71  39  31 W7        30.15F
TEMPLE         MOSUNNY   72  34  25 W14       30.13F
KILLEEN        PTSUNNY   71  31  22 W13       30.16F
KILLEEN-SKYLRK PTSUNNY   73  32  21 W9G16     30.14F
FORT HOOD      PTSUNNY   73  30  20 MISG      30.14F
GATESVILLE     MOSUNNY   72  34  25 W12       30.16F
HAMILTON       SUNNY     72  34  25 W15G25    30.17F
LAMPASAS       PTSUNNY   71  33  24 W9        30.16F
$$

TXZ095>097-106>112-122>126-135>138-148>153-164>167-262200-
EAST TEXAS

CITY           SKY/WX    TMP DP  RH WIND       PRES   REMARKS
PARIS          SUNNY     64  37  36 SW10G17   30.07F
SULPHUR SPRNGS SUNNY     66  34  30 SW13G20   30.10F
MOUNT PLEASANT SUNNY     65  33  30 W9        30.09F
GILMER         SUNNY     64  33  31 SW6       30.09S
MINEOLA        SUNNY     66  28  24 S9        30.10F
TYLER          SUNNY     67  32  27 W6        30.10F
LONGVIEW       SUNNY     66  32  28 W9        30.09F
MARSHALL       SUNNY     66  32  28 W8        30.10F
ATHENS         SUNNY     63  34  34 S6        30.11F
PALESTINE      SUNNY     67  34  29 W8        30.14F
HENDERSON      SUNNY     65  33  29 W8        30.12S
NACOGDOCHES    SUNNY     64  34  32 SW3       30.13F
LUFKIN         SUNNY     69  33  26 W6        30.13F
$$

SUPPLEMENTAL OBSERVATIONS (CENTRAL)

CITY           SKY/WX    TMP DP  RH WIND       PRES   REMARKS
CADDO GRASSLND   N/A     70  34  26 SW9         N/A
PAT MAYSE LAKE   N/A     61  34  36 S7          N/A
GREENVILLE       N/A     66  34  30 SW12        N/A
CEDAR HILL       N/A     72  36  26 SW7         N/A
MCGREGOR         N/A     73  32  21 W6G16       N/A
$$

SUPPLEMENTAL OBSERVATIONS (WEST)

CITY           SKY/WX    TMP DP  RH WIND       PRES   REMARKS
MILLERS CREEK    N/A     73  37  27 SW13        N/A
LBJ GRASSLAND    N/A     73  36  25 W7G17       N/A
HAMBY            N/A     72  36  26 W15         N/A
IVIE RESERVOIR   N/A     66  34  30 W12         N/A
COLORADO BEND    N/A     70  32  24 NW9         N/A
$$

SUPPLEMENTAL OBSERVATIONS (EAST)

CITY           SKY/WX    TMP DP  RH WIND       PRES   REMARKS
CLARKSVILLE      N/A     66  36  32 W6          N/A
TEXARKANA        N/A     64  34  32 W6          N/A
LINDEN           N/A     66  32  28 SW7         N/A
GILMER           N/A     66  32  28 W8          N/A
HENDERSON        N/A     66  32  28 W12         N/A
LUFKIN           N/A     70  32  24 MISG        N/A
N SABINE NF      N/A     66  32  28 MISG        N/A
S SABINE NF      N/A     63  34  34 NE6         N/A
$$

SUPPLEMENTAL OBSERVATIONS ARE A COLLECTION OF AUTOMATED INSTRUMENTS
THAT ARE MAINTAINED BY A VARIETY OF FEDERAL AND STATE AGENCIES.
CERTAIN ELEMENTS...SUCH AS HUMIDITY VALUES AND SUSTAINED WIND
SPEEDS...MAY BE APPROXIMATED.



USA.gov is the U.S. government's official web portal to all federal, state and local government web resources and services.